Погода в Рыбинске

Хотите узнать прогноз погоды в Рыбинске? Тогда Вам сюда: Погода в Рыбинске

Поиск расширенной информации на нашем сайте:

Полезная информация:

Новости сайта



02.01.2020
Опубликован Долгосрочный прогноз погоды по городам России и ближнего зарубежья на январь 2020 года.
Карты: Прогноз на январь и февраль 2020 года, Сравнение прогнозируемой аномалии приземной температуры воздуха на январь 2020 года по разным моделям.




Погода в Рыбинске - сегодня

Время (UTC), дата Ветер
(°,м/с) 
Видим.   Явления Облачность Т
(°С)
Тd
(°С)
f(%) Тe
(°С)
Pmin
(гПа)
dP
(гПа)
Po
(мм)
O2
(г/м3)
Тmin Tmax R s Состояние
почвы
06 30.11.20 130 (ЮВ) 4{10}  10 км  {дождь}  10/10 300 м 
[Sc]
+1.3 +0.1 92 -1  1031.1  -0.4  763  306           
09 30.11.20 140 (ЮВ) 10 км    10/10 300 м 
[Sc]
+1 -0.3 91 -1  1030.7  -0.5  763  306           
12 30.11.20 140 (ЮВ) 10 км  {снег}  10/10 300 м 
[Sc]
+0.6 -1.2 88 -1  1029.6  -1  762  307           
15 30.11.20 160 (Ю) 10 км    10/10 300 м 
[Sc]
+0.5 -1.1 89 -1  1029.4  -0.3  762  307    +1.5  0.0     
18 30.11.20 150 (ЮВ) 3{10}  4000 м  слаб. снег  10/0 средняя 
[As op]
+0.2 -0.7 94 -2  1029.3  -0.2  762  307           
21 30.11.20 150 (ЮВ) 4000 м  слаб. снег  10/0 средняя 
[As op]
-0.1 -0.5 97 -2  1029.2  0.1  762  307           
00 01.12.20 150 (ЮВ) 4000 м  слаб. снег  10/0 средняя 
[As op]
-0.3 -0.9 96 -1  1029.1  0.1  762  307           
03 01.12.20 150 (ЮВ) 4000 м  слаб. снег  10/0 средняя 
[As op]
-0.5 -1.2 95 -1  1029.1  762  308  -0.5    11  равномерный
сухой снег
100% 
06 01.12.20 160 (Ю) 4000 м  слаб. снег  10/0 средняя 
[As op]
-0.7 -1.3 96 -2  1029.8  0.9  762  308  -0.7         
09 01.12.20 170 (Ю) 4000 м  слаб. снег  10/10 2000 м 
[Ns]
-0.6 -1.4 94 -1  1030.8  0.9  763  308           
12 01.12.20 160 (Ю) 4000 м  слаб. снег  10/10 300 м 
[Frnb|Ns]
-1 -1.7 95 -2  1031.6  0.8  764  309           
15 01.12.20 160 (Ю) 10 км  {снег}  10/10 300 м 
[Sc]
-1.7 -2.2 96 -3  1033.1  1.4  765  310    -0.5     
18 01.12.20 170 (Ю) 10 км  {снег}  10/0 средняя 
[As op]
-1.7 -2.5 94 -1  1033.9  0.9  765  311           
21 01.12.20 220 (ЮЗ) 10 км    10/0 средняя 
[As op]
-1.6 -2.7 92 -1  1035.1  766  311           
00 02.12.20 230 (ЮЗ) 10 км    10/0 средняя 
[As op]
-1.6 -3.2 89 -1  1035.6  0.5  766  311           
03 02.12.20 260 (З) 10 км    10/0 средняя 
[As op]
-2.5 -3.6 92 -2  1036.2  0.6  767  312  -2.5      11  равномерный
сухой снег
100% 
06 02.12.20 140 (ЮВ) 10 км    8/0 средняя 
[As trans]
-3.2 -4.1 93 -3  1037  0.7  767  313  -3.2         
09 02.12.20 160 (Ю) 10 км    10/10 2000 м 
[Ns]
-1.5 -2.3 94 -1  1037  0.2  768  311           
12 02.12.20 150 (ЮВ) 10 км    10/10 2000 м 
[Ns]
-1.3 -2.3 93 -1  1036.8  -0.2  767  311           
15 02.12.20 140 (ЮВ) 10 км    10/0 средняя 
[As op]
-1.9 -2.6 95 -1  1036.7  -0.1  767  312    -1.2       
18 02.12.20 150 (ЮВ) 10 км    10/0 средняя 
[As op]
-2.2 -3 94 -2  1036.6  -0.1  767  312           
21 02.12.20 140 (ЮВ) 10 км    10/0 средняя 
[As op]
-2.6 -3.7 92 -4  1036.4  -0.2  767  313           
00 03.12.20 140 (ЮВ) 10 км    6/0 средняя, верхняя 
[As trans|Ci fib]
-5 -6.8 87 -5  1036.5  -0.1  767  316           
03 03.12.20 140 (ЮВ) 10 км    3/0 верхняя 
[Ci sp]
-7.4 -8.5 92 -9  1036  -0.7  767  318  -7.4         
06 03.12.20 140 (ЮВ) 10 км    3/3 2000 м средняя 
[Ac trans]
-8.8 -9.9 92 -10  1035.5  -0.5  766  320  -8.8         
Время (UTC), дата Ветер
(°,м/с) 
Видим.   Явления Облачность Т
(°С)
Тd
(°С)
f(%) Тe
(°С)
Pmin
(гПа)
dP
(гПа)
Po
(мм)
O2
(г/м3)
Тmin Tmax R s Состояние
почвы

Для получения пояснительной информации подведите курсор к названию столбца.

ПОГОДА в Рыбинске - архив

Всё, что Вы хотите узнать о погоде в Рыбинске - удобно и подробно!

Выберите нужную дату (начиная с 1 января 2019* года) и нажмите кнопку "Найти".
Будут отображены архивные сводки погоды по пункту Рыбинск, начиная с указанной даты.


Отображать данные в формате CSV (для использования в таблицах Excel)


Внимание! Наш архив погоды предназначен исключительно для личного некоммерческого использования в познавательных целях. Если Вам необходимы официальные справки о состоянии погоды (для производственных, юридических, коммерческих и т.п. целей), обращайтесь в органы Росгидромета.

*Примечание: данная дата относится к архиву по метеостанциям СССР (Россия, СНГ, Балтия).
Архив по метеостанциям Зарубежной Европы и Азии (кроме Китая) хранится 10 дней, по другим регионам земного шара (Китай, Африка, Америка, Австралия, Океания) - 1 день.

Рыбинск - район местоположения метеостанции


Название, широта, долгота, высота метеостанции:
Рыбинск 58.1°ш. 38.7°д. 105 м над ур. моря [Российская Федерация]

Дополнительная информация

В oтличие oт бoльшинства пoгoдных сайтoв мы публикуем пoдрoбную метеoинфoрмацию в детальнoм прoфессиoнальнoм фoрмате.

Характеристики температуры и влажнoсти вoздуха измеряются на высoте 2 м в тени вдали oт зданий и деревьев.
Скoрoсть ветра измеряется на высoте 10 м (на урoвне рoста челoвека скoрoсть ветра ниже в 1.5-2 раза). Если метеoстанция нахoдится в гoрoде или в лесу, тo скoрoсть ветра занижена на 2-4 м/с пo сравнению с oткрытым местoм. Скoрoсть ветра над акватoриями крупных рек и oзёр, а также на вершинах хoлмoв на 2-5 м/с выше, чем в oбычных услoвиях.
Атмoсфернoе давление в разных тoчках местнoсти мoжет значительнo oтличаться oт давления на метеoстанции, в зависимoсти oт услoвий рельефа (при пoдъёме на 10 м давление пoнижается примернo на 1 мм рт.ст.).